TUI7CX EDDV-LGIR

Flight info

Callsign TUI7CX
Flight time N/A
Altitude 35000
Route POVEL4S POVEL Z94 GALMA M736 RELKO DCT ALOSO DCT ABERU DCT ARMUT DCT LAMSI DCT RADLY DCT PODET DCT KOMAR DCT EDALA DCT GACMO DCT POD DCT PINDO UL607 GIVIS T514 XAVIS
Aircraft B738/M-SDE2E3FGHIRWXY/LB1

Departure

Time N/A
Airport Hannover Airport (EDDV)

Arrival

Time 2026-05-05 13:40
Airport Heraklion International Nikos Kazantzakis Airport (LGIR)
Time Latitude Longitude Altitude Speed Heading
2026-05-05 13:10 37.62341 24.13928 37072 ft 494 kts 143°
2026-05-05 13:10 37.59586 24.16541 37067 ft 497 kts 143°
2026-05-05 13:11 37.54060 24.21769 37083 ft 501 kts 143°
2026-05-05 13:11 37.51240 24.24428 36716 ft 509 kts 143°
2026-05-05 13:11 37.48395 24.27105 36336 ft 507 kts 143°
2026-05-05 13:12 37.45582 24.29747 35930 ft 502 kts 143°
2026-05-05 13:12 37.42788 24.32368 35510 ft 498 kts 143°
2026-05-05 13:12 37.40047 24.34938 35117 ft 495 kts 143°
2026-05-05 13:12 37.37294 24.37516 34724 ft 491 kts 143°
2026-05-05 13:13 37.34564 24.40070 34361 ft 488 kts 143°
2026-05-05 13:13 37.33263 24.41287 34158 ft 487 kts 143°
2026-05-05 13:13 37.30542 24.43829 33706 ft 484 kts 143°
2026-05-05 13:13 37.27840 24.46351 33289 ft 480 kts 143°
2026-05-05 13:14 37.25161 24.48850 32883 ft 477 kts 143°
2026-05-05 13:14 37.22535 24.51298 32499 ft 473 kts 143°
2026-05-05 13:14 37.19895 24.53755 32123 ft 469 kts 143°
2026-05-05 13:14 37.17283 24.56185 31754 ft 466 kts 143°
2026-05-05 13:15 37.14682 24.58603 31371 ft 462 kts 143°
2026-05-05 13:15 37.12097 24.61003 31008 ft 459 kts 143°
2026-05-05 13:15 37.09566 24.63351 30656 ft 456 kts 143°
2026-05-05 13:15 37.07022 24.65709 30299 ft 453 kts 143°
2026-05-05 13:16 37.04493 24.68052 29897 ft 450 kts 143°
2026-05-05 13:16 37.01984 24.70375 29492 ft 447 kts 143°
2026-05-05 13:16 36.99493 24.72677 29119 ft 443 kts 143°
2026-05-05 13:16 36.97021 24.74961 28739 ft 439 kts 143°
2026-05-05 13:17 36.94568 24.77226 28373 ft 436 kts 143°
2026-05-05 13:17 36.92140 24.79457 27994 ft 432 kts 144°
2026-05-05 13:17 36.89674 24.81502 27686 ft 428 kts 148°
2026-05-05 13:17 36.87148 24.83460 27299 ft 425 kts 149°
2026-05-05 13:18 36.84621 24.85379 26943 ft 422 kts 149°
2026-05-05 13:18 36.82122 24.87280 26592 ft 419 kts 149°
2026-05-05 13:18 36.79645 24.89179 26241 ft 416 kts 148°
2026-05-05 13:18 36.77215 24.91052 25897 ft 414 kts 148°
2026-05-05 13:19 36.74775 24.92940 25548 ft 412 kts 148°
2026-05-05 13:19 36.72347 24.94819 25199 ft 410 kts 148°
2026-05-05 13:19 36.69654 24.96901 24818 ft 407 kts 148°
2026-05-05 13:19 36.67244 24.98754 24482 ft 405 kts 148°
2026-05-05 13:20 36.64849 25.00589 24152 ft 403 kts 148°
2026-05-05 13:20 36.62456 25.02420 23821 ft 402 kts 148°
2026-05-05 13:20 36.60093 25.04226 23394 ft 402 kts 149°
2026-05-05 13:20 36.57718 25.06040 23019 ft 399 kts 149°
2026-05-05 13:21 36.55312 25.07877 22651 ft 396 kts 149°
2026-05-05 13:21 36.53012 25.09633 22305 ft 394 kts 149°
2026-05-05 13:21 36.50677 25.11413 21956 ft 391 kts 149°
2026-05-05 13:21 36.48357 25.13182 21612 ft 388 kts 149°
2026-05-05 13:22 36.46057 25.14934 21269 ft 386 kts 149°
2026-05-05 13:22 36.43776 25.16670 20934 ft 383 kts 149°
2026-05-05 13:22 36.41536 25.18374 20602 ft 381 kts 149°
2026-05-05 13:22 36.39283 25.20086 20266 ft 378 kts 149°
2026-05-05 13:23 36.37039 25.21791 19931 ft 376 kts 149°
2026-05-05 13:23 36.34807 25.23484 19597 ft 374 kts 149°
2026-05-05 13:23 36.32586 25.25170 19260 ft 372 kts 149°
2026-05-05 13:23 36.30379 25.26842 18929 ft 370 kts 150°
2026-05-05 13:24 36.28185 25.28504 18604 ft 368 kts 150°
2026-05-05 13:24 36.26026 25.30138 18264 ft 366 kts 150°
2026-05-05 13:24 36.23853 25.31781 17898 ft 364 kts 150°
2026-05-05 13:24 36.21690 25.33416 17543 ft 362 kts 149°
2026-05-05 13:25 36.19547 25.35035 17211 ft 359 kts 149°
2026-05-05 13:25 36.17412 25.36647 16876 ft 357 kts 149°
2026-05-05 13:25 36.15324 25.38223 16551 ft 354 kts 149°
2026-05-05 13:25 36.13219 25.39810 16214 ft 352 kts 149°
2026-05-05 13:26 36.11043 25.41156 15885 ft 348 kts 161°
2026-05-05 13:26 36.08759 25.42113 15572 ft 345 kts 163°
2026-05-05 13:26 36.06467 25.42997 15249 ft 343 kts 164°
2026-05-05 13:26 36.04220 25.43856 14936 ft 341 kts 164°
2026-05-05 13:27 36.01957 25.44731 14625 ft 339 kts 163°
2026-05-05 13:27 35.99707 25.45613 14308 ft 338 kts 163°
2026-05-05 13:27 35.97466 25.46502 13993 ft 337 kts 162°
2026-05-05 13:27 35.95236 25.47392 13646 ft 335 kts 162°
2026-05-05 13:28 35.93046 25.48270 13309 ft 334 kts 162°
2026-05-05 13:28 35.90839 25.49155 12975 ft 332 kts 162°
2026-05-05 13:28 35.88647 25.50035 12655 ft 330 kts 162°
2026-05-05 13:28 35.86470 25.50909 12338 ft 328 kts 162°
2026-05-05 13:29 35.84301 25.51779 12025 ft 326 kts 162°
2026-05-05 13:29 35.82152 25.52640 11720 ft 324 kts 162°
2026-05-05 13:29 35.80038 25.53487 11410 ft 322 kts 162°
2026-05-05 13:29 35.77909 25.54339 11109 ft 320 kts 162°
2026-05-05 13:30 35.75793 25.55186 10792 ft 319 kts 162°
2026-05-05 13:30 35.73671 25.56035 10404 ft 320 kts 162°
2026-05-05 13:30 35.71548 25.56811 10202 ft 314 kts 172°
2026-05-05 13:30 35.69439 25.56582 10109 ft 299 kts 205°
2026-05-05 13:31 35.67642 25.55426 10006 ft 288 kts 213°
2026-05-05 13:31 35.65941 25.54189 9682 ft 287 kts 213°
2026-05-05 13:31 35.64219 25.52921 9351 ft 288 kts 213°
2026-05-05 13:31 35.62497 25.51662 9052 ft 287 kts 213°
2026-05-05 13:32 35.60772 25.50411 8749 ft 287 kts 213°
2026-05-05 13:32 35.59051 25.49171 8457 ft 286 kts 212°
2026-05-05 13:32 35.57351 25.47952 8158 ft 286 kts 212°
2026-05-05 13:32 35.55632 25.46723 7874 ft 285 kts 212°
2026-05-05 13:33 35.53915 25.45497 7599 ft 284 kts 212°
2026-05-05 13:33 35.52193 25.44269 7287 ft 285 kts 212°
2026-05-05 13:33 35.50477 25.43048 7013 ft 284 kts 212°
2026-05-05 13:33 35.48766 25.41832 6741 ft 284 kts 212°
2026-05-05 13:34 35.47060 25.40621 6479 ft 283 kts 212°
2026-05-05 13:34 35.45276 25.39722 6153 ft 280 kts 187°
2026-05-05 13:34 35.43397 25.40064 5844 ft 271 kts 152°
2026-05-05 13:34 35.41723 25.41080 5562 ft 266 kts 154°
2026-05-05 13:35 35.40039 25.41893 5431 ft 255 kts 160°
2026-05-05 13:35 35.38360 25.42449 5312 ft 243 kts 167°
2026-05-05 13:35 35.36725 25.42780 5128 ft 234 kts 174°
2026-05-05 13:35 35.35157 25.42518 4687 ft 231 kts 208°
2026-05-05 13:36 35.34042 25.41135 3997 ft 230 kts 251°
2026-05-05 13:36 35.33841 25.39301 3654 ft 214 kts 274°
2026-05-05 13:36 35.33852 25.37515 3353 ft 204 kts 273°
2026-05-05 13:36 35.33849 25.35804 3030 ft 198 kts 273°
2026-05-05 13:37 35.33851 25.34161 2744 ft 188 kts 273°
2026-05-05 13:37 35.33858 25.32609 2482 ft 176 kts 274°
2026-05-05 13:37 35.33863 25.31192 2238 ft 162 kts 273°
2026-05-05 13:37 35.33787 25.29858 2026 ft 148 kts 267°
2026-05-05 13:38 35.33662 25.28671 1958 ft 136 kts 266°
2026-05-05 13:38 35.33557 25.27504 1774 ft 137 kts 269°
2026-05-05 13:38 35.33507 25.26375 1524 ft 135 kts 273°
2026-05-05 13:38 35.33466 25.25190 1237 ft 139 kts 272°
2026-05-05 13:39 35.33540 25.24039 1054 ft 132 kts 281°
2026-05-05 13:39 35.33624 25.22923 836 ft 131 kts 278°
2026-05-05 13:39 35.33699 25.21806 658 ft 134 kts 279°
2026-05-05 13:39 35.33782 25.20660 464 ft 139 kts 279°
2026-05-05 13:40 35.33867 25.19466 219 ft 143 kts 279°
2026-05-05 13:40 35.33952 25.18305 96 ft 125 kts 277°
2026-05-05 13:40 35.34021 25.17384 89 ft 88 kts 275°
2026-05-05 13:40 35.34049 25.16949 89 ft 29 kts 274°
2026-05-05 13:41 35.34033 25.16855 92 ft 4 kts 195°
2026-05-05 13:41 35.34010 25.16878 89 ft 5 kts 127°
2026-05-05 13:41 35.33986 25.16917 92 ft 6 kts 126°
2026-05-05 13:41 35.33962 25.16961 89 ft 6 kts 122°
2026-05-05 13:42 35.33947 25.17010 90 ft 6 kts 101°
2026-05-05 13:42 35.33942 25.17062 90 ft 6 kts 95°
2026-05-05 13:42 35.33938 25.17126 89 ft 9 kts 95°
2026-05-05 13:42 35.33932 25.17212 89 ft 11 kts 95°
2026-05-05 13:43 35.33925 25.17303 91 ft 11 kts 95°
2026-05-05 13:43 35.33918 25.17391 90 ft 10 kts 95°
2026-05-05 13:43 35.33913 25.17477 90 ft 10 kts 94°
2026-05-05 13:43 35.33908 25.17557 90 ft 9 kts 94°
2026-05-05 13:44 35.33891 25.17622 91 ft 7 kts 136°
2026-05-05 13:44 35.33848 25.17614 92 ft 6 kts 230°
2026-05-05 13:44 35.33857 25.17564 91 ft 7 kts 308°
2026-05-05 13:44 35.33869 25.17548 90 ft 0 kts 313°